Time,TemperatureF,DewpointF,PressureIn,WindDirection,WindDirectionDegrees,WindSpeedMPH,WindSpeedGustMPH,Humidity,HourlyPrecipIn,Conditions,Clouds,dailyrainin,SoftwareType,DateUTC
2013-03-24 00:00:00,44.6,25.6,29.89,NE,49,0.0,0.0,47,0.00,CLR,SCT,0.00,WeatherDisplay:10.37,2013-03-24 04:00:00,
2013-03-24 00:05:00,44.4,25.9,29.88,NE,49,0.0,0.0,48,0.00,CLR,SCT,0.00,WeatherDisplay:10.37,2013-03-24 04:05:00,
2013-03-24 00:10:00,44.3,25.8,29.88,NE,49,0.0,0.0,48,0.00,CLR,SCT,0.00,WeatherDisplay:10.37,2013-03-24 04:10:00,
2013-03-24 00:15:00,44.2,25.7,29.89,NE,49,0.0,0.0,48,0.00,CLR,SCT,0.00,WeatherDisplay:10.37,2013-03-24 04:15:00,
2013-03-24 00:20:00,44.1,25.6,29.89,NE,49,0.0,0.0,48,0.00,CLR,SCT,0.00,WeatherDisplay:10.37,2013-03-24 04:20:00,
2013-03-24 00:25:00,43.9,25.9,29.88,NE,49,0.0,0.0,49,0.00,CLR,SCT,0.00,WeatherDisplay:10.37,2013-03-24 04:25:00,
2013-03-24 00:30:00,43.7,25.8,29.89,NE,49,0.0,0.0,49,0.00,CLR,SCT,0.00,WeatherDisplay:10.37,2013-03-24 04:30:00,
2013-03-24 00:35:00,43.5,26.1,29.88,NE,49,0.0,0.0,50,0.00,CLR,SCT,0.00,WeatherDisplay:10.37,2013-03-24 04:35:00,
2013-03-24 00:40:00,43.4,25.5,29.88,NE,49,0.0,0.0,49,0.00,CLR,SCT,0.00,WeatherDisplay:10.37,2013-03-24 04:40:00,
2013-03-24 00:45:00,43.2,25.8,29.88,NE,49,0.0,0.0,50,0.00,CLR,SCT,0.00,WeatherDisplay:10.37,2013-03-24 04:45:00,
2013-03-24 00:50:00,43.1,25.7,29.88,NE,49,0.0,0.0,50,0.00,CLR,SCT,0.00,WeatherDisplay:10.37,2013-03-24 04:50:00,
2013-03-24 00:55:00,43.1,25.7,29.88,NE,49,0.0,0.0,50,0.00,CLR,SCT,0.00,WeatherDisplay:10.37,2013-03-24 04:55:00,
2013-03-24 01:00:00,43.0,25.6,29.88,East,85,0.0,0.0,50,0.00,CLR,SCT,0.00,WeatherDisplay:10.37,2013-03-24 05:00:00,
2013-03-24 01:05:00,43.0,25.6,29.88,NE,44,1.1,0.0,50,0.00,CLR,SCT,0.00,WeatherDisplay:10.37,2013-03-24 05:05:00,
2013-03-24 01:10:00,42.9,25.0,29.88,East,83,1.6,1.6,49,0.00,CLR,SCT,0.00,WeatherDisplay:10.37,2013-03-24 05:10:00,
2013-03-24 01:15:00,42.8,25.4,29.87,NW,319,0.0,0.0,50,0.00,CLR,SCT,0.00,WeatherDisplay:10.37,2013-03-24 05:15:00,
2013-03-24 01:20:00,42.7,24.8,29.87,NW,319,0.0,0.0,49,0.00,CLR,SCT,0.00,WeatherDisplay:10.37,2013-03-24 05:20:00,
2013-03-24 01:25:00,42.5,25.1,29.88,NW,319,0.0,0.0,50,0.00,CLR,SCT,0.00,WeatherDisplay:10.37,2013-03-24 05:25:00,
2013-03-24 01:30:00,42.3,24.9,29.88,SW,223,2.3,2.3,50,0.00,CLR,SCT,0.00,WeatherDisplay:10.37,2013-03-24 05:30:00,
2013-03-24 01:35:00,42.0,24.7,29.88,West,271,1.1,1.1,50,0.00,CLR,SCT,0.00,WeatherDisplay:10.37,2013-03-24 05:35:00,
2013-03-24 01:40:00,42.1,25.2,29.88,West,271,0.0,0.0,51,0.00,CLR,SCT,0.00,WeatherDisplay:10.37,2013-03-24 05:40:00,
2013-03-24 01:45:00,42.1,25.2,29.88,West,271,0.0,0.0,51,0.00,CLR,SCT,0.00,WeatherDisplay:10.37,2013-03-24 05:45:00,
2013-03-24 01:50:00,42.0,24.7,29.87,West,271,0.0,0.0,50,0.00,CLR,SCT,0.00,WeatherDisplay:10.37,2013-03-24 05:50:00,
2013-03-24 01:55:00,42.0,24.7,29.87,West,271,0.0,0.0,50,0.00,CLR,SCT,0.00,WeatherDisplay:10.37,2013-03-24 05:55:00,
2013-03-24 02:00:00,41.9,24.6,29.87,West,271,0.0,0.0,50,0.00,CLR,SCT,0.00,WeatherDisplay:10.37,2013-03-24 06:00:00,
2013-03-24 02:05:00,42.0,24.7,29.87,SW,222,2.3,2.3,50,0.00,CLR,SCT,0.00,WeatherDisplay:10.37,2013-03-24 06:05:00,
2013-03-24 02:10:00,41.9,24.6,29.88,SSW,200,2.3,2.3,50,0.00,CLR,SCT,0.00,WeatherDisplay:10.37,2013-03-24 06:10:00,
2013-03-24 02:15:00,41.9,24.6,29.88,SE,137,0.0,0.0,50,0.00,CLR,SCT,0.00,WeatherDisplay:10.37,2013-03-24 06:15:00,
2013-03-24 02:20:00,42.0,25.1,29.88,SE,137,0.0,0.0,51,0.00,CLR,SCT,0.00,WeatherDisplay:10.37,2013-03-24 06:20:00,
2013-03-24 02:25:00,41.9,25.1,29.88,SE,141,0.0,0.0,51,0.00,CLR,SCT,0.00,WeatherDisplay:10.37,2013-03-24 06:25:00,
2013-03-24 02:30:00,41.7,24.9,29.88,SE,141,0.0,0.0,51,0.00,CLR,SCT,0.00,WeatherDisplay:10.37,2013-03-24 06:30:00,
2013-03-24 02:35:00,41.6,24.3,29.89,SE,141,0.0,0.0,50,0.00,CLR,SCT,0.00,WeatherDisplay:10.37,2013-03-24 06:35:00,
2013-03-24 02:40:00,41.3,24.5,29.89,South,169,2.5,2.8,51,0.00,CLR,SCT,0.00,WeatherDisplay:10.37,2013-03-24 06:40:00,
2013-03-24 02:45:00,41.3,24.5,29.89,SSW,213,1.1,1.1,51,0.00,CLR,SCT,0.00,WeatherDisplay:10.37,2013-03-24 06:45:00,
2013-03-24 02:50:00,41.2,24.4,29.89,WSW,240,0.0,0.0,51,0.00,CLR,SCT,0.00,WeatherDisplay:10.37,2013-03-24 06:50:00,
2013-03-24 02:55:00,41.2,24.4,29.89,SSE,157,0.0,0.0,51,0.00,CLR,SCT,0.00,WeatherDisplay:10.37,2013-03-24 06:55:00,
2013-03-24 03:00:00,41.2,24.4,29.90,SSE,157,2.5,2.5,51,0.00,CLR,SCT,0.00,WeatherDisplay:10.37,2013-03-24 07:00:00,
2013-03-24 03:05:00,41.2,24.4,29.90,ENE,66,0.0,0.0,51,0.00,CLR,SCT,0.00,WeatherDisplay:10.37,2013-03-24 07:05:00,
2013-03-24 03:10:00,41.2,23.9,29.91,South,186,6.9,6.9,50,0.00,CLR,SCT,0.00,WeatherDisplay:10.37,2013-03-24 07:10:00,
2013-03-24 03:15:00,41.3,24.0,29.92,South,179,2.3,2.3,50,0.00,CLR,SCT,0.00,WeatherDisplay:10.37,2013-03-24 07:15:00,
2013-03-24 03:20:00,41.2,23.9,29.91,ENE,69,3.5,3.6,50,0.00,CLR,SCT,0.00,WeatherDisplay:10.37,2013-03-24 07:20:00,
2013-03-24 03:25:00,41.1,23.8,29.91,SSE,151,8.1,8.1,50,0.00,CLR,SCT,0.00,WeatherDisplay:10.37,2013-03-24 07:25:00,
2013-03-24 03:30:00,41.2,23.4,29.91,SSE,160,8.1,8.1,49,0.00,CLR,SCT,0.00,WeatherDisplay:10.37,2013-03-24 07:30:00,
2013-03-24 03:35:00,41.1,23.4,29.91,SSE,161,8.1,8.1,49,0.00,CLR,SCT,0.00,WeatherDisplay:10.37,2013-03-24 07:35:00,
2013-03-24 03:40:00,41.2,23.4,29.92,SSE,160,6.9,6.9,49,0.00,CLR,SCT,0.00,WeatherDisplay:10.37,2013-03-24 07:40:00,
2013-03-24 03:45:00,40.9,23.2,29.91,SE,140,9.2,9.2,49,0.00,CLR,SCT,0.00,WeatherDisplay:10.37,2013-03-24 07:45:00,
2013-03-24 03:50:00,41.1,23.4,29.91,SE,134,6.9,6.9,49,0.00,CLR,SCT,0.00,WeatherDisplay:10.37,2013-03-24 07:50:00,
2013-03-24 03:55:00,41.0,22.8,29.91,SE,134,5.5,5.5,48,0.00,CLR,SCT,0.00,WeatherDisplay:10.37,2013-03-24 07:55:00,
2013-03-24 04:00:00,40.9,22.7,29.90,SE,145,4.6,4.6,48,0.00,CLR,SCT,0.00,WeatherDisplay:10.37,2013-03-24 08:00:00,
2013-03-24 04:05:00,41.0,22.8,29.89,ESE,123,3.5,3.5,48,0.00,CLR,SCT,0.00,WeatherDisplay:10.37,2013-03-24 08:05:00,
2013-03-24 04:10:00,40.9,22.7,29.89,ENE,78,4.2,4.2,48,0.00,CLR,SCT,0.00,WeatherDisplay:10.37,2013-03-24 08:10:00,
2013-03-24 04:15:00,40.9,22.7,29.88,East,89,6.9,6.9,48,0.00,CLR,SCT,0.00,WeatherDisplay:10.37,2013-03-24 08:15:00,
2013-03-24 04:20:00,40.6,22.9,29.88,ENE,71,4.1,4.1,49,0.00,CLR,SCT,0.00,WeatherDisplay:10.37,2013-03-24 08:20:00,
2013-03-24 04:25:00,40.7,23.0,29.89,SSW,200,1.1,1.1,49,0.00,CLR,SCT,0.00,WeatherDisplay:10.37,2013-03-24 08:25:00,
2013-03-24 04:30:00,40.6,22.9,29.88,ENE,72,5.8,5.8,49,0.00,CLR,SCT,0.00,WeatherDisplay:10.37,2013-03-24 08:30:00,
2013-03-24 04:35:00,40.5,23.3,29.88,ENE,78,3.3,3.3,50,0.00,CLR,SCT,0.00,WeatherDisplay:10.37,2013-03-24 08:35:00,
2013-03-24 04:40:00,40.3,23.1,29.88,East,80,4.6,4.6,50,0.00,CLR,SCT,0.00,WeatherDisplay:10.37,2013-03-24 08:40:00,
2013-03-24 04:45:00,40.3,23.1,29.88,East,85,5.8,5.8,50,0.00,CLR,SCT,0.00,WeatherDisplay:10.37,2013-03-24 08:45:00,
2013-03-24 04:51:00,40.0,22.8,29.87,ESE,114,6.9,6.9,50,0.00,CLR,SCT,0.00,WeatherDisplay:10.37,2013-03-24 08:51:00,
2013-03-24 04:56:00,39.9,23.2,29.87,East,82,5.8,5.8,51,0.00,CLR,SCT,0.00,WeatherDisplay:10.37,2013-03-24 08:56:00,
2013-03-24 05:01:00,39.5,22.8,29.86,SSE,152,10.4,10.4,51,0.00,CLR,SCT,0.00,WeatherDisplay:10.37,2013-03-24 09:01:00,
2013-03-24 05:06:00,39.4,22.7,29.85,SSE,147,10.4,10.4,51,0.00,CLR,SCT,0.00,WeatherDisplay:10.37,2013-03-24 09:06:00,
2013-03-24 05:11:00,39.0,22.8,29.85,East,99,8.1,8.1,52,0.00,CLR,SCT,0.00,WeatherDisplay:10.37,2013-03-24 09:11:00,
2013-03-24 05:16:00,39.0,22.8,29.85,SSW,193,6.9,6.9,52,0.00,CLR,SCT,0.00,WeatherDisplay:10.37,2013-03-24 09:16:00,
2013-03-24 05:21:00,38.8,22.6,29.85,SE,127,13.8,13.8,52,0.00,CLR,SCT,0.00,WeatherDisplay:10.37,2013-03-24 09:21:00,
2013-03-24 05:26:00,38.6,22.9,29.85,SE,144,6.9,6.9,53,0.00,CLR,SCT,0.00,WeatherDisplay:10.37,2013-03-24 09:26:00,
2013-03-24 05:31:00,38.6,22.9,29.84,SSE,161,9.2,9.2,53,0.00,CLR,SCT,0.00,WeatherDisplay:10.37,2013-03-24 09:31:00,
2013-03-24 05:36:00,38.5,22.8,29.84,SE,137,10.1,10.1,53,0.00,CLR,SCT,0.00,WeatherDisplay:10.37,2013-03-24 09:36:00,
2013-03-24 05:41:00,38.4,23.2,29.84,SSE,157,9.2,9.2,54,0.00,CLR,SCT,0.00,WeatherDisplay:10.37,2013-03-24 09:41:00,
2013-03-24 05:46:00,38.2,23.0,29.85,SSE,167,10.4,10.4,54,0.00,CLR,SCT,0.00,WeatherDisplay:10.37,2013-03-24 09:46:00,
2013-03-24 05:51:00,38.5,23.3,29.84,SE,130,9.2,9.2,54,0.00,CLR,SCT,0.00,WeatherDisplay:10.37,2013-03-24 09:51:00,
2013-03-24 05:56:00,38.4,23.2,29.85,ESE,120,10.4,10.4,54,0.00,CLR,SCT,0.00,WeatherDisplay:10.37,2013-03-24 09:56:00,
2013-03-24 06:01:00,38.5,22.8,29.85,ESE,116,10.4,10.4,53,0.00,CLR,SCT,0.00,WeatherDisplay:10.37,2013-03-24 10:01:00,
2013-03-24 06:06:00,38.3,22.6,29.85,SE,128,3.5,3.5,53,0.00,CLR,SCT,0.00,WeatherDisplay:10.37,2013-03-24 10:06:00,
2013-03-24 06:11:00,38.5,23.3,29.85,East,88,6.9,6.9,54,0.00,CLR,SCT,0.00,WeatherDisplay:10.37,2013-03-24 10:11:00,
2013-03-24 06:16:00,38.6,22.9,29.85,SSE,152,6.9,6.9,53,0.00,CLR,SCT,0.00,WeatherDisplay:10.37,2013-03-24 10:16:00,
2013-03-24 06:21:00,38.5,23.3,29.85,East,79,0.0,0.3,54,0.00,CLR,SCT,0.00,WeatherDisplay:10.37,2013-03-24 10:21:00,
2013-03-24 06:26:00,38.3,23.1,29.85,SE,134,5.8,5.8,54,0.00,CLR,SCT,0.00,WeatherDisplay:10.37,2013-03-24 10:26:00,
2013-03-24 06:31:00,38.4,23.2,29.85,SE,145,3.7,3.7,54,0.00,CLR,SCT,0.00,WeatherDisplay:10.37,2013-03-24 10:31:00,
2013-03-24 06:36:00,38.5,22.8,29.85,SE,133,4.6,4.6,53,0.00,CLR,SCT,0.00,WeatherDisplay:10.37,2013-03-24 10:36:00,
2013-03-24 06:42:00,38.5,22.8,29.85,East,92,5.8,5.8,53,0.00,CLR,SCT,0.00,WeatherDisplay:10.37,2013-03-24 10:42:00,
2013-03-24 06:47:00,38.5,23.3,29.85,SE,144,5.3,5.3,54,0.00,CLR,SCT,0.00,WeatherDisplay:10.37,2013-03-24 10:47:00,
2013-03-24 06:52:00,38.4,23.2,29.85,NNW,343,4.6,4.6,54,0.00,CLR,SCT,0.00,WeatherDisplay:10.37,2013-03-24 10:52:00,
2013-03-24 06:57:00,38.4,23.2,29.85,NNW,328,2.3,2.3,54,0.00,CLR,SCT,0.00,WeatherDisplay:10.37,2013-03-24 10:57:00,
2013-03-24 07:02:00,38.7,23.4,29.86,SW,236,5.8,5.8,54,0.00,CLR,SCT,0.00,WeatherDisplay:10.37,2013-03-24 11:02:00,
2013-03-24 07:07:00,38.6,22.9,29.86,ENE,75,3.7,3.7,53,0.00,CLR,SCT,0.00,WeatherDisplay:10.37,2013-03-24 11:07:00,
2013-03-24 07:12:00,38.5,23.3,29.86,SSE,162,3.5,3.5,54,0.00,CLR,SCT,0.00,WeatherDisplay:10.37,2013-03-24 11:12:00,
2013-03-24 07:17:00,38.5,23.3,29.86,ESE,102,6.9,6.9,54,0.00,CLR,SCT,0.00,WeatherDisplay:10.37,2013-03-24 11:17:00,
2013-03-24 07:22:00,38.6,23.4,29.86,SW,229,2.3,2.3,54,0.00,CLR,SCT,0.00,WeatherDisplay:10.37,2013-03-24 11:22:00,
2013-03-24 07:27:00,38.6,23.4,29.85,East,95,1.5,1.5,54,0.00,CLR,SCT,0.00,WeatherDisplay:10.37,2013-03-24 11:27:00,
2013-03-24 07:32:00,38.7,23.4,29.85,SW,220,4.6,4.6,54,0.00,CLR,SCT,0.00,WeatherDisplay:10.37,2013-03-24 11:32:00,
2013-03-24 07:37:00,38.5,23.7,29.85,NNW,343,3.5,0.0,55,0.00,CLR,SCT,0.00,WeatherDisplay:10.37,2013-03-24 11:37:00,
2013-03-24 07:42:00,38.6,23.4,29.85,SSW,193,3.5,3.5,54,0.00,CLR,SCT,0.00,WeatherDisplay:10.37,2013-03-24 11:42:00,
2013-03-24 07:48:00,38.5,23.3,29.84,SSE,148,6.9,6.9,54,0.00,CLR,SCT,0.00,WeatherDisplay:10.37,2013-03-24 11:48:00,
2013-03-24 07:53:00,38.3,23.5,29.84,SSE,155,4.6,6.5,55,0.00,CLR,SCT,0.00,WeatherDisplay:10.37,2013-03-24 11:53:00,
2013-03-24 07:58:00,38.0,23.2,29.83,SSE,158,10.4,10.4,55,0.00,CLR,SCT,0.00,WeatherDisplay:10.37,2013-03-24 11:58:00,
2013-03-24 08:03:00,37.7,23.4,29.83,SSE,161,10.4,10.4,56,0.00,BKN,SCT,0.00,WeatherDisplay:10.37,2013-03-24 12:03:00,
2013-03-24 08:08:00,37.6,23.7,29.83,SW,220,11.5,11.5,57,0.00,BKN,SCT,0.00,WeatherDisplay:10.37,2013-03-24 12:08:00,
2013-03-24 08:13:00,37.5,23.6,29.83,SSE,152,9.7,9.7,57,0.00,BKN,SCT,0.00,WeatherDisplay:10.37,2013-03-24 12:13:00,
2013-03-24 08:18:00,37.4,23.9,29.83,SE,131,11.5,11.5,58,0.00,BKN,SCT,0.00,WeatherDisplay:10.37,2013-03-24 12:18:00,
2013-03-24 08:23:00,37.3,23.8,29.83,SSE,168,12.7,12.7,58,0.00,BKN,SCT,0.00,WeatherDisplay:10.37,2013-03-24 12:23:00,
2013-03-24 08:28:00,37.1,24.1,29.83,SE,144,17.3,17.3,59,0.00,BKN,SCT,0.00,WeatherDisplay:10.37,2013-03-24 12:28:00,
2013-03-24 08:33:00,36.9,24.3,29.83,SE,138,12.7,12.7,60,0.00,BKN,SCT,0.00,WeatherDisplay:10.37,2013-03-24 12:33:00,
2013-03-24 08:38:00,36.8,24.6,29.83,SSE,147,11.5,11.5,61,0.00,BKN,SCT,0.00,WeatherDisplay:10.37,2013-03-24 12:38:00,
2013-03-24 08:43:00,36.6,24.8,29.83,SSE,158,10.4,10.4,62,0.00,BKN,SCT,0.00,WeatherDisplay:10.37,2013-03-24 12:43:00,
2013-03-24 08:48:00,36.5,24.7,29.83,SSE,165,12.7,12.7,62,0.00,BKN,SCT,0.00,WeatherDisplay:10.37,2013-03-24 12:48:00,
2013-03-24 08:53:00,36.1,25.1,29.84,ESE,103,11.5,11.5,64,0.00,BKN,SCT,0.00,WeatherDisplay:10.37,2013-03-24 12:53:00,
2013-03-24 08:58:00,35.8,25.2,29.83,East,97,8.1,8.1,65,0.00,BKN,SCT,0.00,WeatherDisplay:10.37,2013-03-24 12:58:00,
2013-03-24 09:03:00,35.6,25.3,29.84,South,176,10.4,10.4,66,0.00,-RA,SCT,0.00,WeatherDisplay:10.37,2013-03-24 13:03:00,
2013-03-24 09:08:00,35.5,25.6,29.83,ESE,123,3.5,3.5,67,0.00,-RA,SCT,0.00,WeatherDisplay:10.37,2013-03-24 13:08:00,
2013-03-24 09:13:00,35.5,25.6,29.83,SSE,154,6.9,6.9,67,0.00,-RA,SCT,0.00,WeatherDisplay:10.37,2013-03-24 13:13:00,
2013-03-24 09:18:00,35.5,26.0,29.83,SE,145,5.8,5.8,68,0.00,-RA,SCT,0.00,WeatherDisplay:10.37,2013-03-24 13:18:00,
2013-03-24 09:23:00,35.3,25.8,29.83,SSE,155,4.7,4.7,68,0.00,-RA,SCT,0.00,WeatherDisplay:10.37,2013-03-24 13:23:00,
2013-03-24 09:28:00,35.2,26.4,29.83,SE,126,3.5,3.5,70,0.00,-RA,SCT,0.00,WeatherDisplay:10.37,2013-03-24 13:28:00,
2013-03-24 09:33:00,35.3,26.8,29.83,East,96,3.5,3.5,71,0.00,-RA,SCT,0.00,WeatherDisplay:10.37,2013-03-24 13:33:00,
2013-03-24 09:38:00,35.3,26.8,29.84,SSE,151,2.3,2.3,71,0.00,-RA,SCT,0.00,WeatherDisplay:10.37,2013-03-24 13:38:00,
2013-03-24 09:43:00,35.3,27.5,29.84,South,179,4.6,4.6,73,0.00,-RA,SCT,0.00,WeatherDisplay:10.37,2013-03-24 13:43:00,
2013-03-24 09:48:00,34.8,27.7,29.84,NE,37,2.3,2.3,75,0.00,-RA,SCT,0.00,WeatherDisplay:10.37,2013-03-24 13:48:00,
2013-03-24 09:53:00,34.6,27.5,29.84,South,172,4.1,4.1,75,0.00,-RA,SCT,0.00,WeatherDisplay:10.37,2013-03-24 13:53:00,
2013-03-24 09:58:00,34.2,27.4,29.84,SSE,157,6.9,6.9,76,0.00,-RA,SCT,0.00,WeatherDisplay:10.37,2013-03-24 13:58:00,
2013-03-24 10:03:00,34.2,27.7,29.84,SE,144,8.1,8.1,77,0.00,-RA,SCT,0.00,WeatherDisplay:10.37,2013-03-24 14:03:00,
2013-03-24 10:08:00,34.1,27.9,29.84,SSE,161,5.8,5.8,78,0.00,-RA,SCT,0.00,WeatherDisplay:10.37,2013-03-24 14:08:00,
2013-03-24 10:13:00,33.9,28.1,29.83,SSE,148,10.7,10.7,79,0.00,-RA,SCT,0.00,WeatherDisplay:10.37,2013-03-24 14:13:00,
2013-03-24 10:18:00,33.4,28.2,29.82,SSE,161,9.2,9.2,81,0.00,-RA,SCT,0.00,WeatherDisplay:10.37,2013-03-24 14:18:00,
2013-03-24 10:23:00,33.0,28.4,29.82,ESE,121,8.1,8.1,83,0.00,-RA,SCT,0.00,WeatherDisplay:10.37,2013-03-24 14:23:00,
2013-03-24 10:28:00,33.0,28.7,29.81,South,179,5.8,5.8,84,0.00,-RA,SCT,0.00,WeatherDisplay:10.37,2013-03-24 14:28:00,
2013-03-24 10:33:00,32.8,28.8,29.81,SSE,150,5.8,5.8,85,0.00,-RA,SCT,0.00,WeatherDisplay:10.37,2013-03-24 14:33:00,
2013-03-24 10:38:00,32.8,28.8,29.80,South,189,5.8,5.8,85,0.00,-RA,SCT,0.00,WeatherDisplay:10.37,2013-03-24 14:38:00,
2013-03-24 10:43:00,32.8,29.1,29.80,NE,47,2.3,2.3,86,0.00,-RA,SCT,0.00,WeatherDisplay:10.37,2013-03-24 14:43:00,
2013-03-24 10:48:00,32.8,29.1,29.80,ESE,116,7.3,7.3,86,0.00,-RA,SCT,0.00,WeatherDisplay:10.37,2013-03-24 14:48:00,
2013-03-24 10:53:00,32.6,28.9,29.80,SE,124,9.2,9.2,86,0.00,-RA,SCT,0.00,WeatherDisplay:10.37,2013-03-24 14:53:00,
2013-03-24 10:58:00,32.4,28.9,29.80,ESE,107,4.6,4.6,87,0.00,-RA,SCT,0.00,WeatherDisplay:10.37,2013-03-24 14:58:00,
2013-03-24 11:03:00,32.4,29.2,29.80,SE,140,3.5,3.5,88,0.00,OVC,SCT,0.00,WeatherDisplay:10.37,2013-03-24 15:03:00,
2013-03-24 11:08:00,32.2,29.0,29.81,South,188,8.1,8.1,88,0.00,OVC,SCT,0.00,WeatherDisplay:10.37,2013-03-24 15:08:00,
2013-03-24 11:13:00,32.2,29.3,29.81,SSE,147,4.6,4.6,89,0.00,OVC,SCT,0.00,WeatherDisplay:10.37,2013-03-24 15:13:00,
2013-03-24 11:18:00,32.2,29.3,29.81,SSE,147,0.0,0.0,89,0.00,OVC,SCT,0.00,WeatherDisplay:10.37,2013-03-24 15:18:00,
2013-03-24 11:23:00,32.1,29.2,29.81,South,186,3.5,0.0,89,0.00,OVC,SCT,0.00,WeatherDisplay:10.37,2013-03-24 15:23:00,
2013-03-24 11:28:00,32.0,29.4,29.80,ESE,113,4.6,4.6,90,0.00,OVC,SCT,0.00,WeatherDisplay:10.37,2013-03-24 15:28:00,
2013-03-24 11:33:00,31.9,29.3,29.79,SSE,148,0.0,0.0,90,0.00,OVC,SCT,0.00,WeatherDisplay:10.37,2013-03-24 15:33:00,
2013-03-24 11:38:00,31.8,29.2,29.79,SSE,148,0.0,0.0,90,0.00,OVC,SCT,0.00,WeatherDisplay:10.37,2013-03-24 15:38:00,
2013-03-24 11:43:00,31.9,29.3,29.78,SSE,148,0.0,0.0,90,0.00,OVC,SCT,0.00,WeatherDisplay:10.37,2013-03-24 15:43:00,
2013-03-24 11:48:00,32.1,29.8,29.77,SSE,148,0.0,0.0,91,0.00,OVC,SCT,0.00,WeatherDisplay:10.37,2013-03-24 15:48:00,
2013-03-24 11:53:00,32.2,29.8,29.77,SSE,148,0.0,0.0,91,0.00,OVC,SCT,0.00,WeatherDisplay:10.37,2013-03-24 15:53:00,
2013-03-24 11:58:00,32.4,30.0,29.76,SSE,148,0.0,0.0,91,0.00,OVC,SCT,0.00,WeatherDisplay:10.37,2013-03-24 15:58:00,
2013-03-24 12:03:00,32.4,30.0,29.75,SSE,155,2.2,2.4,91,0.00, +SN,SCT,0.00,WeatherDisplay:10.37,2013-03-24 16:03:00,
2013-03-24 12:08:00,32.1,29.8,29.75,East,96,4.6,4.6,91,0.00, +SN,SCT,0.00,WeatherDisplay:10.37,2013-03-24 16:08:00,
2013-03-24 12:14:00,32.2,29.8,29.75,SE,131,5.8,5.8,91,0.00, +SN,SCT,0.00,WeatherDisplay:10.37,2013-03-24 16:14:00,
2013-03-24 12:19:00,32.3,29.9,29.75,East,96,5.8,5.8,91,0.00, +SN,SCT,0.00,WeatherDisplay:10.37,2013-03-24 16:19:00,
2013-03-24 12:24:00,32.3,29.9,29.75,SE,144,4.6,0.0,91,0.00, +SN,SCT,0.00,WeatherDisplay:10.37,2013-03-24 16:24:00,
2013-03-24 12:29:00,32.4,30.3,29.75,SSW,206,3.5,3.5,92,0.00, +SN,SCT,0.00,WeatherDisplay:10.37,2013-03-24 16:29:00,
2013-03-24 12:34:00,32.4,30.0,29.74,SSW,206,0.0,0.0,91,0.00, +SN,SCT,0.00,WeatherDisplay:10.37,2013-03-24 16:34:00,
2013-03-24 12:39:00,32.4,30.0,29.75,SSE,157,6.9,6.9,91,0.00, +SN,SCT,0.00,WeatherDisplay:10.37,2013-03-24 16:39:00,
2013-03-24 12:44:00,32.6,30.2,29.74,SSE,157,0.0,0.0,91,0.00, +SN,SCT,0.00,WeatherDisplay:10.37,2013-03-24 16:44:00,
2013-03-24 12:49:00,32.4,30.0,29.73,SSE,157,0.0,0.0,91,0.00, +SN,SCT,0.00,WeatherDisplay:10.37,2013-03-24 16:49:00,
2013-03-24 12:54:00,32.5,30.4,29.73,ESE,121,0.0,0.0,92,0.00, +SN,SCT,0.00,WeatherDisplay:10.37,2013-03-24 16:54:00,
2013-03-24 12:59:00,32.5,30.1,29.73,SSE,155,3.5,3.5,91,0.00, +SN,SCT,0.00,WeatherDisplay:10.37,2013-03-24 16:59:00,
2013-03-24 13:04:00,32.3,30.2,29.72,SE,143,4.6,4.6,92,0.00,-SN,SCT,0.00,WeatherDisplay:10.37,2013-03-24 17:04:00,
2013-03-24 13:09:00,32.2,30.1,29.72,SSE,147,0.0,0.0,92,0.00,-SN,SCT,0.00,WeatherDisplay:10.37,2013-03-24 17:09:00,
2013-03-24 13:14:00,32.3,30.2,29.72,SSE,148,5.8,5.8,92,0.00,-SN,SCT,0.00,WeatherDisplay:10.37,2013-03-24 17:14:00,
2013-03-24 13:19:00,32.2,30.1,29.72,South,171,0.0,1.7,92,0.00,-SN,SCT,0.00,WeatherDisplay:10.37,2013-03-24 17:19:00,
2013-03-24 13:24:00,32.2,30.1,29.72,SE,137,0.0,0.0,92,0.00,-SN,SCT,0.00,WeatherDisplay:10.37,2013-03-24 17:24:00,
2013-03-24 13:29:00,32.3,30.5,29.70,SE,137,0.0,0.0,93,0.00,-SN,SCT,0.00,WeatherDisplay:10.37,2013-03-24 17:29:00,
2013-03-24 13:34:00,32.0,29.9,29.70,South,185,6.9,6.9,92,0.00,-SN,SCT,0.00,WeatherDisplay:10.37,2013-03-24 17:34:00,
2013-03-24 13:39:00,32.0,30.2,29.70,ESE,116,6.9,6.9,93,0.00,-SN,SCT,0.00,WeatherDisplay:10.37,2013-03-24 17:39:00,
2013-03-24 13:44:00,31.9,30.1,29.70,SSE,158,0.0,0.0,93,0.00,-SN,SCT,0.00,WeatherDisplay:10.37,2013-03-24 17:44:00,
2013-03-24 13:49:00,31.9,30.1,29.70,SSE,148,0.0,0.0,93,0.00,-SN,SCT,0.00,WeatherDisplay:10.37,2013-03-24 17:49:00,
2013-03-24 13:54:00,32.1,30.3,29.69,South,171,6.9,6.9,93,0.00,-SN,SCT,0.00,WeatherDisplay:10.37,2013-03-24 17:54:00,
2013-03-24 13:59:00,31.9,30.1,29.70,SSE,147,4.6,4.6,93,0.00,-SN,SCT,0.00,WeatherDisplay:10.37,2013-03-24 17:59:00,
2013-03-24 14:04:00,31.8,30.0,29.70,SE,126,8.1,8.1,93,0.00,-SN,SCT,0.00,WeatherDisplay:10.37,2013-03-24 18:04:00,
2013-03-24 14:09:00,31.7,30.2,29.69,SE,138,9.2,9.2,94,0.00,-SN,SCT,0.00,WeatherDisplay:10.37,2013-03-24 18:09:00,
2013-03-24 14:14:00,31.8,30.3,29.69,SSE,157,13.8,13.8,94,0.00,-SN,SCT,0.00,WeatherDisplay:10.37,2013-03-24 18:14:00,
2013-03-24 14:19:00,31.5,30.0,29.68,SSE,154,9.2,9.2,94,0.00,-SN,SCT,0.00,WeatherDisplay:10.37,2013-03-24 18:19:00,
2013-03-24 14:24:00,31.6,30.1,29.68,South,169,9.2,9.2,94,0.00,-SN,SCT,0.00,WeatherDisplay:10.37,2013-03-24 18:24:00,
2013-03-24 14:29:00,31.5,30.0,29.67,SSE,158,5.8,5.8,94,0.00,-SN,SCT,0.00,WeatherDisplay:10.37,2013-03-24 18:29:00,
2013-03-24 14:34:00,31.6,30.1,29.67,SSE,162,4.6,4.6,94,0.00,-SN,SCT,0.00,WeatherDisplay:10.37,2013-03-24 18:34:00,
2013-03-24 14:39:00,31.6,30.1,29.67,SE,141,0.0,0.0,94,0.00,-SN,SCT,0.00,WeatherDisplay:10.37,2013-03-24 18:39:00,
2013-03-24 14:44:00,31.7,30.4,29.67,SE,141,0.0,0.0,95,0.00,-SN,SCT,0.00,WeatherDisplay:10.37,2013-03-24 18:44:00,
2013-03-24 14:49:00,31.9,30.4,29.67,SE,141,0.0,0.0,94,0.00,-SN,SCT,0.00,WeatherDisplay:10.37,2013-03-24 18:49:00,
2013-03-24 14:54:00,32.0,30.4,29.67,SE,141,0.0,0.0,94,0.00,-SN,SCT,0.00,WeatherDisplay:10.37,2013-03-24 18:54:00,
2013-03-24 14:59:00,32.0,30.4,29.68,SE,141,0.0,0.0,94,0.00,-SN,SCT,0.00,WeatherDisplay:10.37,2013-03-24 18:59:00,
2013-03-24 15:04:00,32.0,30.4,29.69,SE,141,0.0,0.0,94,0.00,OVC,SCT,0.00,WeatherDisplay:10.37,2013-03-24 19:04:00,
2013-03-24 15:09:00,31.8,30.3,29.68,SE,141,0.0,0.0,94,0.01,RA,SCT,0.01,WeatherDisplay:10.37,2013-03-24 19:09:00,
2013-03-24 15:14:00,31.6,30.1,29.68,SE,141,0.0,0.0,94,0.01,RA,SCT,0.01,WeatherDisplay:10.37,2013-03-24 19:14:00,
2013-03-24 15:19:00,31.7,30.2,29.68,SE,141,0.0,0.0,94,0.01,OVC,SCT,0.01,WeatherDisplay:10.37,2013-03-24 19:19:00,
2013-03-24 15:24:00,31.9,30.4,29.68,SE,141,0.0,0.0,94,0.01,OVC,SCT,0.01,WeatherDisplay:10.37,2013-03-24 19:24:00,
2013-03-24 15:29:00,32.1,30.5,29.68,SE,141,0.0,0.0,94,0.01,OVC,SCT,0.01,WeatherDisplay:10.37,2013-03-24 19:29:00,
2013-03-24 15:34:00,32.2,30.6,29.68,SE,141,0.0,0.0,94,0.01,OVC,SCT,0.01,WeatherDisplay:10.37,2013-03-24 19:34:00,
2013-03-24 15:42:00,32.2,30.9,29.67,North,0,0.0,0.0,95,0.01,OVC,SCT,0.01,WeatherDisplay:10.37,2013-03-24 19:42:00,
2013-03-24 15:47:00,32.2,30.9,29.67,North,0,0.0,0.0,95,0.01,RA,SCT,0.01,WeatherDisplay:10.37,2013-03-24 19:47:00,
2013-03-24 15:52:00,32.3,31.0,29.67,North,0,0.0,0.0,95,0.31,RA,SCT,0.31,WeatherDisplay:10.37,2013-03-24 19:52:00,
2013-03-24 15:57:00,32.3,30.7,29.65,North,0,0.0,0.0,94,0.31,RA,SCT,0.31,WeatherDisplay:10.37,2013-03-24 19:57:00,
2013-03-24 16:02:00,32.3,30.7,29.64,North,0,0.0,0.0,94,0.31,OVC,SCT,0.31,WeatherDisplay:10.37,2013-03-24 20:02:00,
2013-03-24 16:07:00,31.9,30.4,29.64,North,0,0.0,0.0,94,0.31,OVC,SCT,0.31,WeatherDisplay:10.37,2013-03-24 20:07:00,
2013-03-24 16:12:00,31.7,30.4,29.64,North,0,0.0,0.0,95,0.31,OVC,SCT,0.31,WeatherDisplay:10.37,2013-03-24 20:12:00,
2013-03-24 16:17:00,31.7,30.4,29.63,North,0,0.0,0.0,95,0.30,OVC,SCT,0.31,WeatherDisplay:10.37,2013-03-24 20:17:00,
2013-03-24 16:22:00,31.7,30.4,29.63,North,0,0.0,0.0,95,0.30,OVC,SCT,0.31,WeatherDisplay:10.37,2013-03-24 20:22:00,
2013-03-24 16:27:00,31.7,30.4,29.63,North,0,0.0,0.0,95,0.30,OVC,SCT,0.31,WeatherDisplay:10.37,2013-03-24 20:27:00,
2013-03-24 16:32:00,31.8,30.5,29.63,North,0,0.0,0.0,95,0.30,OVC,SCT,0.31,WeatherDisplay:10.37,2013-03-24 20:32:00,
2013-03-24 16:37:00,32.0,30.7,29.62,North,0,0.0,0.0,95,0.30,OVC,SCT,0.31,WeatherDisplay:10.37,2013-03-24 20:37:00,
2013-03-24 16:42:00,32.2,30.9,29.62,North,0,0.0,0.0,95,0.30,OVC,SCT,0.31,WeatherDisplay:10.37,2013-03-24 20:42:00,
2013-03-24 16:47:00,32.5,31.2,29.61,North,0,0.0,0.0,95,0.30,OVC,SCT,0.31,WeatherDisplay:10.37,2013-03-24 20:47:00,
2013-03-24 16:52:00,32.4,31.1,29.60,North,0,0.0,0.0,95,0.00,OVC,SCT,0.31,WeatherDisplay:10.37,2013-03-24 20:52:00,
2013-03-24 16:57:00,32.6,31.3,29.61,North,0,0.0,0.0,95,0.00,OVC,SCT,0.31,WeatherDisplay:10.37,2013-03-24 20:57:00,
2013-03-24 17:02:00,32.7,31.4,29.62,North,0,0.0,0.0,95,0.00, +SN,SCT,0.31,WeatherDisplay:10.37,2013-03-24 21:02:00,
2013-03-24 17:07:00,33.0,31.7,29.61,North,0,0.0,0.0,95,0.00, +SN,SCT,0.31,WeatherDisplay:10.37,2013-03-24 21:07:00,
2013-03-24 17:12:00,33.0,31.7,29.61,North,0,0.0,0.0,95,0.00, +SN,SCT,0.31,WeatherDisplay:10.37,2013-03-24 21:12:00,
2013-03-24 17:17:00,32.8,31.5,29.61,North,0,0.0,0.0,95,0.00, +SN,SCT,0.31,WeatherDisplay:10.37,2013-03-24 21:17:00,
2013-03-24 17:22:00,32.8,31.5,29.61,North,0,0.0,0.0,95,0.00, +SN,SCT,0.31,WeatherDisplay:10.37,2013-03-24 21:22:00,
2013-03-24 17:27:00,33.0,31.7,29.61,North,0,0.0,0.0,95,0.00, +SN,SCT,0.32,WeatherDisplay:10.37,2013-03-24 21:27:00,
2013-03-24 17:32:00,33.0,31.7,29.61,North,0,0.0,0.0,95,0.01, +SN,SCT,0.32,WeatherDisplay:10.37,2013-03-24 21:32:00,
2013-03-24 17:38:00,32.9,31.3,29.61,North,0,0.0,0.0,94,0.01, +SN,SCT,0.32,WeatherDisplay:10.37,2013-03-24 21:38:00,
2013-03-24 17:43:00,32.7,31.4,29.60,North,0,0.0,0.0,95,0.01, +SN,SCT,0.32,WeatherDisplay:10.37,2013-03-24 21:43:00,
2013-03-24 17:48:00,32.6,31.3,29.60,North,0,0.0,0.0,95,0.01, +SN,SCT,0.32,WeatherDisplay:10.37,2013-03-24 21:48:00,
2013-03-24 17:53:00,32.7,31.4,29.60,North,0,0.0,0.0,95,0.01, +SN,SCT,0.32,WeatherDisplay:10.37,2013-03-24 21:53:00,
2013-03-24 17:58:00,32.6,31.3,29.60,North,0,0.0,0.0,95,0.01, +SN,SCT,0.32,WeatherDisplay:10.37,2013-03-24 21:58:00,
2013-03-24 18:03:00,32.6,31.3,29.59,North,0,0.0,0.0,95,0.01,OVC,SCT,0.32,WeatherDisplay:10.37,2013-03-24 22:03:00,
2013-03-24 18:08:00,32.5,31.2,29.58,North,0,0.0,0.0,95,0.01,OVC,SCT,0.32,WeatherDisplay:10.37,2013-03-24 22:08:00,
2013-03-24 18:13:00,32.4,31.1,29.58,North,0,0.0,0.0,95,0.01,OVC,SCT,0.32,WeatherDisplay:10.37,2013-03-24 22:13:00,
2013-03-24 18:18:00,32.4,31.1,29.58,North,0,0.0,0.0,95,0.01,OVC,SCT,0.32,WeatherDisplay:10.37,2013-03-24 22:18:00,
2013-03-24 18:23:00,32.0,30.7,29.58,North,0,0.0,0.0,95,0.01,OVC,SCT,0.32,WeatherDisplay:10.37,2013-03-24 22:23:00,
2013-03-24 18:28:00,31.9,30.6,29.58,North,0,0.0,0.0,95,0.00,OVC,SCT,0.32,WeatherDisplay:10.37,2013-03-24 22:28:00,
2013-03-24 18:33:00,31.8,30.5,29.58,North,0,0.0,0.0,95,0.00,OVC,SCT,0.32,WeatherDisplay:10.37,2013-03-24 22:33:00,
2013-03-24 18:38:00,31.8,30.8,29.58,North,0,0.0,0.0,96,0.00,OVC,SCT,0.32,WeatherDisplay:10.37,2013-03-24 22:38:00,
2013-03-24 18:43:00,31.8,30.8,29.57,North,0,0.0,0.0,96,0.00,OVC,SCT,0.32,WeatherDisplay:10.37,2013-03-24 22:43:00,
2013-03-24 18:48:00,31.8,30.8,29.58,North,0,0.0,0.0,96,0.00,OVC,SCT,0.32,WeatherDisplay:10.37,2013-03-24 22:48:00,
2013-03-24 18:53:00,31.7,30.7,29.57,North,0,0.0,0.0,96,0.00,OVC,SCT,0.32,WeatherDisplay:10.37,2013-03-24 22:53:00,
2013-03-24 18:58:00,31.7,30.7,29.58,North,0,0.0,0.0,96,0.00,OVC,SCT,0.32,WeatherDisplay:10.37,2013-03-24 22:58:00,
2013-03-24 19:03:00,31.7,30.7,29.57,ESE,116,0.0,0.0,96,0.00,-DZ,SCT,0.32,WeatherDisplay:10.37,2013-03-24 23:03:00,
2013-03-24 19:08:00,31.5,30.5,29.57,East,96,1.1,1.1,96,0.01,-DZ,SCT,0.33,WeatherDisplay:10.37,2013-03-24 23:08:00,
2013-03-24 19:13:00,31.5,30.5,29.56,East,96,0.0,0.0,96,0.01,-DZ,SCT,0.33,WeatherDisplay:10.37,2013-03-24 23:13:00,
2013-03-24 19:18:00,31.3,30.3,29.56,East,96,0.0,0.0,96,0.01,-DZ,SCT,0.33,WeatherDisplay:10.37,2013-03-24 23:18:00,
2013-03-24 19:23:00,31.3,30.3,29.56,East,96,0.0,0.0,96,0.01,-DZ,SCT,0.33,WeatherDisplay:10.37,2013-03-24 23:23:00,
2013-03-24 19:28:00,31.1,30.1,29.57,East,96,0.0,0.0,96,0.01,-DZ,SCT,0.33,WeatherDisplay:10.37,2013-03-24 23:28:00,
2013-03-24 19:33:00,31.2,30.2,29.58,East,96,0.0,0.0,96,0.01,-DZ,SCT,0.33,WeatherDisplay:10.37,2013-03-24 23:33:00,
2013-03-24 19:38:00,31.5,30.5,29.59,East,96,0.0,0.0,96,0.01,-DZ,SCT,0.33,WeatherDisplay:10.37,2013-03-24 23:38:00,
2013-03-24 19:43:00,31.5,30.5,29.59,East,96,0.0,0.0,96,0.01,-DZ,SCT,0.33,WeatherDisplay:10.37,2013-03-24 23:43:00,
2013-03-24 19:48:00,31.2,30.2,29.60,East,96,0.0,0.0,96,0.01,-DZ,SCT,0.33,WeatherDisplay:10.37,2013-03-24 23:48:00,
2013-03-24 19:53:00,31.2,30.2,29.60,East,96,0.0,0.0,96,0.01,-DZ,SCT,0.33,WeatherDisplay:10.37,2013-03-24 23:53:00,
2013-03-24 19:58:00,31.3,30.3,29.60,East,96,0.0,0.0,96,0.01,-DZ,SCT,0.33,WeatherDisplay:10.37,2013-03-24 23:58:00,
2013-03-24 20:03:00,31.5,30.5,29.60,East,96,0.0,0.0,96,0.01,OVC,SCT,0.33,WeatherDisplay:10.37,2013-03-25 00:03:00,
2013-03-24 20:08:00,31.5,30.5,29.61,East,96,0.0,0.0,96,0.00,OVC,SCT,0.33,WeatherDisplay:10.37,2013-03-25 00:08:00,
2013-03-24 20:13:00,31.4,30.4,29.61,East,96,0.0,0.0,96,0.00,OVC,SCT,0.33,WeatherDisplay:10.37,2013-03-25 00:13:00,
2013-03-24 20:18:00,31.4,30.4,29.61,SSE,151,9.2,9.2,96,0.00,OVC,SCT,0.33,WeatherDisplay:10.37,2013-03-25 00:18:00,
2013-03-24 20:23:00,31.2,30.2,29.61,SE,141,0.0,0.0,96,0.00,OVC,SCT,0.33,WeatherDisplay:10.37,2013-03-25 00:23:00,
2013-03-24 20:28:00,31.2,30.2,29.62,SE,138,0.0,0.0,96,0.00,OVC,SCT,0.33,WeatherDisplay:10.37,2013-03-25 00:28:00,
2013-03-24 20:33:00,31.2,30.2,29.62,SE,138,0.0,0.0,96,0.00,OVC,SCT,0.33,WeatherDisplay:10.37,2013-03-25 00:33:00,
2013-03-24 20:38:00,31.2,30.2,29.62,SE,138,0.0,0.0,96,0.00,OVC,SCT,0.33,WeatherDisplay:10.37,2013-03-25 00:38:00,
2013-03-24 20:43:00,31.2,30.2,29.62,SSE,160,8.1,8.1,96,0.00,OVC,SCT,0.33,WeatherDisplay:10.37,2013-03-25 00:43:00,
2013-03-24 20:48:00,30.9,29.9,29.62,ESE,120,2.2,2.2,96,0.00,OVC,SCT,0.33,WeatherDisplay:10.37,2013-03-25 00:48:00,
2013-03-24 20:53:00,30.9,29.9,29.62,ESE,123,0.0,3.5,96,0.00,OVC,SCT,0.33,WeatherDisplay:10.37,2013-03-25 00:53:00,
2013-03-24 20:58:00,30.7,29.7,29.62,ESE,123,1.1,1.1,96,0.00,OVC,SCT,0.33,WeatherDisplay:10.37,2013-03-25 00:58:00,
2013-03-24 21:03:00,30.8,29.8,29.62,ESE,123,0.0,0.0,96,0.00,OVC,SCT,0.33,WeatherDisplay:10.37,2013-03-25 01:03:00,
2013-03-24 21:08:00,31.0,30.0,29.61,ESE,123,0.0,0.0,96,0.00,OVC,SCT,0.33,WeatherDisplay:10.37,2013-03-25 01:08:00,
2013-03-24 21:13:00,30.7,29.7,29.62,SE,128,10.4,10.4,96,0.00,OVC,SCT,0.33,WeatherDisplay:10.37,2013-03-25 01:13:00,
2013-03-24 21:18:00,30.8,29.8,29.62,East,100,9.2,9.2,96,0.00,OVC,SCT,0.33,WeatherDisplay:10.37,2013-03-25 01:18:00,
2013-03-24 21:23:00,30.4,29.4,29.62,SSE,157,6.3,6.3,96,0.00,OVC,SCT,0.33,WeatherDisplay:10.37,2013-03-25 01:23:00,
2013-03-24 21:28:00,30.4,29.4,29.62,South,172,9.2,9.2,96,0.00,OVC,SCT,0.33,WeatherDisplay:10.37,2013-03-25 01:28:00,
2013-03-24 21:34:00,30.2,29.2,29.62,SSE,152,11.9,11.9,96,0.00,OVC,SCT,0.33,WeatherDisplay:10.37,2013-03-25 01:34:00,
2013-03-24 21:39:00,29.9,28.9,29.62,SE,124,9.2,9.2,96,0.00,OVC,SCT,0.33,WeatherDisplay:10.37,2013-03-25 01:39:00,
2013-03-24 21:44:00,29.9,29.1,29.62,SE,145,8.6,8.6,97,0.00,OVC,SCT,0.33,WeatherDisplay:10.37,2013-03-25 01:44:00,
2013-03-24 21:49:00,29.9,29.1,29.62,SE,143,4.6,4.6,97,0.00,OVC,SCT,0.33,WeatherDisplay:10.37,2013-03-25 01:49:00,
2013-03-24 21:54:00,29.9,29.1,29.62,South,169,0.0,0.0,97,0.00,OVC,SCT,0.33,WeatherDisplay:10.37,2013-03-25 01:54:00,
2013-03-24 21:59:00,29.9,29.1,29.61,SSE,158,8.1,8.1,97,0.00,OVC,SCT,0.33,WeatherDisplay:10.37,2013-03-25 01:59:00,
2013-03-24 22:04:00,29.9,29.1,29.61,SE,137,0.0,0.0,97,0.00,-RA,SCT,0.33,WeatherDisplay:10.37,2013-03-25 02:04:00,
2013-03-24 22:09:00,29.9,29.1,29.61,SSE,164,7.6,7.6,97,0.00,-RA,SCT,0.33,WeatherDisplay:10.37,2013-03-25 02:09:00,
2013-03-24 22:14:00,29.9,29.1,29.60,SSW,196,0.0,0.0,97,0.00,-RA,SCT,0.33,WeatherDisplay:10.37,2013-03-25 02:14:00,
2013-03-24 22:19:00,29.9,29.1,29.60,South,174,5.4,5.4,97,0.00,-RA,SCT,0.33,WeatherDisplay:10.37,2013-03-25 02:19:00,
2013-03-24 22:24:00,29.8,29.0,29.60,ESE,117,2.3,0.0,97,0.00,-RA,SCT,0.33,WeatherDisplay:10.37,2013-03-25 02:24:00,
2013-03-24 22:29:00,29.7,28.9,29.60,SE,128,0.0,0.0,97,0.00,-RA,SCT,0.33,WeatherDisplay:10.37,2013-03-25 02:29:00,
2013-03-24 22:34:00,29.7,28.9,29.58,SSE,157,8.8,8.8,97,0.00,-RA,SCT,0.33,WeatherDisplay:10.37,2013-03-25 02:34:00,
2013-03-24 22:39:00,29.7,28.9,29.58,SE,130,0.0,0.0,97,0.00,-RA,SCT,0.33,WeatherDisplay:10.37,2013-03-25 02:39:00,
2013-03-24 22:44:00,29.7,28.9,29.58,SE,130,0.0,0.0,97,0.01,-RA,SCT,0.34,WeatherDisplay:10.37,2013-03-25 02:44:00,
2013-03-24 22:49:00,29.8,29.0,29.57,SE,136,1.1,1.1,97,0.01,-RA,SCT,0.34,WeatherDisplay:10.37,2013-03-25 02:49:00,
2013-03-24 22:54:00,29.8,29.0,29.57,WSW,243,8.1,8.1,97,0.01,-RA,SCT,0.34,WeatherDisplay:10.37,2013-03-25 02:54:00,
2013-03-24 22:59:00,29.5,28.7,29.57,SSE,154,3.5,3.5,97,0.01,-RA,SCT,0.34,WeatherDisplay:10.37,2013-03-25 02:59:00,
2013-03-24 23:04:00,29.4,28.6,29.57,SW,224,5.9,5.9,97,0.01,OVC,SCT,0.34,WeatherDisplay:10.37,2013-03-25 03:04:00,
2013-03-24 23:09:00,29.3,28.5,29.57,SSE,150,9.2,9.2,97,0.01,OVC,SCT,0.34,WeatherDisplay:10.37,2013-03-25 03:09:00,
2013-03-24 23:14:00,29.3,28.5,29.57,South,174,9.2,9.2,97,0.01,OVC,SCT,0.34,WeatherDisplay:10.37,2013-03-25 03:14:00,
2013-03-24 23:19:00,29.3,28.5,29.57,SSE,160,6.1,6.1,97,0.01,OVC,SCT,0.34,WeatherDisplay:10.37,2013-03-25 03:19:00,
2013-03-24 23:24:00,29.3,28.5,29.56,SSE,151,0.0,0.0,97,0.01,OVC,SCT,0.34,WeatherDisplay:10.37,2013-03-25 03:24:00,
2013-03-24 23:29:00,29.3,28.5,29.56,ESE,113,5.8,5.8,97,0.01,OVC,SCT,0.34,WeatherDisplay:10.37,2013-03-25 03:29:00,
2013-03-24 23:34:00,29.2,28.4,29.57,ESE,119,10.4,10.4,97,0.01,OVC,SCT,0.34,WeatherDisplay:10.37,2013-03-25 03:34:00,
2013-03-24 23:39:00,29.3,28.5,29.56,SSE,161,8.1,8.1,97,0.01,OVC,SCT,0.34,WeatherDisplay:10.37,2013-03-25 03:39:00,
2013-03-24 23:44:00,29.4,28.6,29.56,ESE,109,0.0,0.0,97,0.00,OVC,SCT,0.34,WeatherDisplay:10.37,2013-03-25 03:44:00,
2013-03-24 23:49:00,29.4,28.6,29.56,SE,127,1.1,0.0,97,0.00,OVC,SCT,0.34,WeatherDisplay:10.37,2013-03-25 03:49:00,
2013-03-24 23:54:00,29.4,28.6,29.56,SE,127,0.0,0.0,97,0.00,OVC,SCT,0.34,WeatherDisplay:10.37,2013-03-25 03:54:00,
2013-03-24 23:59:00,29.4,28.6,29.56,SE,127,0.0,0.0,97,0.00,OVC,SCT,0.34,WeatherDisplay:10.37,2013-03-25 03:59:00,